RESURS-P 4

Last updated on Mon Jun 22 2026 00:02:52 GMT+0000 (Coordinated Universal Time)

1 59371U 24061A 26172.50834079 .00002324 00000+0 77302-4 0 9995 2 59371 97.2751 120.3316 0002490 121.7094 238.4391 15.32151603124423
UTC large
Height (km)
Speed (km/s)
/
Latitude / Longitude
Inclination (degrees)
Orbital Period (minutes)
Azimuth
Elevation
Range (km)
Doppler Factor

Next 0 passes for location: London (51.5072 / 0.1276)

No passes found over London.
RESURS-P 4